Dubai, UAE

2:49 PM GST on August 28, 2016 (GMT +0400)
Dubai

Weather History for 41194 - September, 2013

Change the Weather History Date:

Tuesday, September 3, 2013

  Actual Average Record
Temperature  
Mean Temperature 98 °F -  
Max Temperature 107 °F 98 °F - ()
Min Temperature 89 °F 80 °F - ()
Cooling Degree Days 33    
Growing Degree Days 48 (Base 50)    
Moisture  
Dew Point 70 °F    
Average Humidity 43    
Maximum Humidity 59    
Minimum Humidity 14    
Precipitation  
Precipitation 0.00 in 0.00 in - ()
Sea Level Pressure  
Sea Level Pressure 29.65 in    
Wind  
Wind Speed 6 mph ()    
Max Wind Speed 16 mph    
Max Gust Speed -    
Visibility 6.0 miles    
Events      
T = Trace of Precipitation, MM = Missing Value Source: Averaged Metar Reports

Daily Weather History Graph

Daily Weather History Graph

Search for Another Location

Airport or City:

Trip Planner

Search our weather history database for the weather conditions in past years. The results will help you decide how hot, cold, wet, or windy it might be!

Date:

Astronomy

Sep. 03, 2013 Rise Set
Actual Time 5:59 AM GST 6:35 PM GST
Civil Twilight 5:36 AM GST 6:58 PM GST
Nautical Twilight 5:09 AM GST 7:25 PM GST
Astronomical Twilight 4:41 AM GST 7:53 PM GST
Moon 3:58 AM GST (9/3) 5:04 PM GST (9/3)
Length of Visible Light 13h 21m
Length of Day
12h 35m
Waning Crescent, 5% of the Moon is Illuminated
Sep 3
Waning Crescent
Sep 5
New
Sep 12
First Quarter
Sep 19
Full
Sep 27
Last Quarter

Hourly Weather History & Observations

Time (GST) Temp. Heat Index Dew Point Humidity Pressure Visibility Wind Dir Wind Speed Gust Speed Precip Events Conditions
12:00 AM 95.0 °F 107.4 °F 75.2 °F 53% 29.68 in - ENE 4.6 mph - N/A   Clear
1:00 AM 94 °F - 73 °F 42% 29.69 in 6 mi East 5.8 mph - -  
1:00 AM 95.0 °F 104.5 °F 73.4 °F 49% 29.68 in - East 5.8 mph - N/A   Clear
2:00 AM 95.0 °F 101.3 °F 69.8 °F 44% 29.65 in - NE 3.5 mph - N/A   Clear
3:00 AM 95.0 °F 99.5 °F 68.0 °F 41% 29.65 in - East 5.8 mph - N/A   Clear
4:00 AM 93 °F - 69 °F 35% 29.68 in 6 mi East 6.9 mph - -  
4:00 AM 93.2 °F 97.7 °F 68.0 °F 44% 29.65 in - East 6.9 mph - N/A   Clear
5:00 AM 91.4 °F 96.8 °F 69.8 °F 49% 29.65 in - SSE 3.5 mph - N/A   Clear
6:00 AM 89.6 °F 92.2 °F 66.2 °F 46% 29.68 in - East 5.8 mph - N/A   Clear
7:00 AM 89.6 °F 91.1 °F 64.4 °F 43% 29.68 in - SSE 4.6 mph - N/A   Clear
9:00 AM 98.6 °F 98.5 °F 59.0 °F 27% 29.71 in - SE 5.8 mph - N/A   Clear
10:00 AM 100.4 °F 101.3 °F 60.8 °F 27% 29.71 in - South 6.9 mph - N/A   Clear
11:00 AM 104.0 °F 104.6 °F 59.0 °F 23% 29.68 in - SSW 8.1 mph - N/A   Clear
12:00 PM 107.6 °F - 48.2 °F 14% 29.68 in - WSW 6.9 mph - N/A   Clear
1:00 PM 104 °F - 66 °F 21% 29.67 in 6 mi West 12.7 mph - -   Clear
1:00 PM 104.0 °F 108.9 °F 66.2 °F 29% 29.65 in - West 12.7 mph - N/A   Clear
2:00 PM 100.4 °F 107.8 °F 69.8 °F 37% 29.65 in - NW 16.1 mph - N/A   Clear
3:00 PM 98.6 °F 107.7 °F 71.6 °F 42% 29.62 in - NW 15.0 mph - N/A   Clear
4:00 PM 98.6 °F 111.7 °F 75.2 °F 47% 29.62 in - NW 12.7 mph - N/A   Clear
5:00 PM 96.8 °F 112.2 °F 77.0 °F 53% 29.62 in - NW 11.5 mph - N/A   Clear
6:00 PM 95.0 °F 112.2 °F 78.8 °F 59% 29.62 in - NW 10.4 mph - N/A   Clear
7:00 PM 95 °F - 76 °F 45% 29.63 in 6 mi NW 9.2 mph - -  
7:00 PM 95.0 °F 107.4 °F 75.2 °F 53% 29.62 in - NW 9.2 mph - N/A   Clear
8:00 PM 95.0 °F 112.2 °F 78.8 °F 59% 29.62 in - WNW 10.4 mph - N/A   Clear
9:00 PM 93.2 °F 107.2 °F 77.0 °F 59% 29.62 in - West 6.9 mph - N/A   Clear
10:00 PM 95.0 °F 107.4 °F 75.2 °F 53% 29.62 in - SW 5.8 mph - N/A   Clear
11:00 PM 93.2 °F 107.2 °F 77.0 °F 59% 29.62 in - SSE 4.6 mph - N/A   Clear